Regional Weather Roundup
Issued by NWS

Home | Current Version | Previous Version | Text Only | Print | Product List | Glossary Off
Versions: 1 2 3 4 5 6 7 8 9 10 11 12 13 14 15 16 17 18 19 20 21 22 23 24 25 26 27 28 29 30 31 32 33 34 35 36 37 38 39 40 41 42 43 44 45 46 47 48 49 50

000
ASUS43 KBIS 020210
RWRND

NORTH DAKOTA REGIONAL WEATHER ROUNDUP
NATIONAL WEATHER SERVICE BISMARCK ND
900 PM CDT WED APR 01 2015

NOTE: "FAIR" INDICATES FEW OR NO CLOUDS BELOW 12,000 FEET WITH NO
SIGNIFICANT WEATHER AND/OR OBSTRUCTIONS TO VISIBILITY.


NDZ001>003-009>011-017-020300-
NORTHWEST NORTH DAKOTA

CITY           SKY/WX    TMP DP  RH WIND       PRES   REMARKS
WILLISTON      CLEAR     47  22  37 W17       29.67R
MINOT          CLEAR     47  21  35 W12       29.63R
MINOT AFB      CLEAR     42  27  55 W12       29.61R
$$

NDZ018>021-031>035-040>046-020300-
SOUTHWEST NORTH DAKOTA

CITY           SKY/WX    TMP DP  RH WIND       PRES   REMARKS
BISMARCK       PTCLDY    52  23  32 NW13      29.71R
DICKINSON      CLEAR     43  20  39 W13       29.73R
GARRISON         N/A     45  23  42 W10       29.68R
HETTINGER ARPT CLEAR     41  20  43 NW9       29.79R
$$

NDZ004>008-012>016-024-026-027-054-020300-
NORTHEAST NORTH DAKOTA

CITY           SKY/WX    TMP DP  RH WIND       PRES   REMARKS
GRAND FORKS    MOCLDY    50  38  63 NW16      29.56R
GRND FRKS AFB  CLOUDY    49  38  64 NW14G23   29.56R
DEVILS LAKE    CLEAR     45  30  57 W12       29.60R
$$

NDZ022-023-025-028>030-036>039-047>053-020300-
SOUTHEAST NORTH DAKOTA

CITY           SKY/WX    TMP DP  RH WIND       PRES   REMARKS
FARGO          MOCLDY    57  38  48 NW21      29.58R
JAMESTOWN      MOCLDY    50  27  40 NW15      29.64R
$$




USA.gov is the U.S. government's official web portal to all federal, state and local government web resources and services.